Voltar ao catálogo

STARLINK-1560

AtivoComunicaçõesVLEO
NORAD 46036·PAYLOAD·🇺🇸 United States

Lançado Aug 7, 2020 de Cape Canaveral Space Force Station

Loading…

Próximas Passagens (próximas 24 horas)

TLE

AtualizadoSource: CelesTrak SupGP

Época: Sep 14, 2026, 21:21 UTC

1 46036C 20055K   26257.89006944 -.00024572  00000+0 -79014-3 0  2575
2 46036  53.1590 327.0144 0001134  78.8535 354.4332 15.31715339    13

Acompanhe STARLINK-1560 em tempo real com AllMySat

Download on the App Store